Погода в Экимчане

Погода в Экимчане : погода сейчас, прогноз погоды и архив. Всё, что Вы хотите узнать о погоде в Экимчане!

Хотите узнать прогноз погоды в Экимчане? Тогда Вам сюда: Погода в Экимчане

Поиск расширенной информации на нашем сайте:

Другие новости

Новости СМИ2

Главная страница сайта

Новости сайта

03.07.2017

Напоминаем, что на нашем специализированном сайте Метеоцентр.Азия вы можете получить высокодетализированные автоматические прогнозы погоды по пунктам России, СНГ и мира в авиационном формате (включающие направление и скорость ветра, видимость, явления погоды, количество и форму облачности, нижнюю и верхнюю границу облачности).

Рекомендуем: Психолог дистанционное обучение дистанционное обучение психология.

Погода в Экимчане - сегодня

Время (UTC), дата Ветер
(°,м/с) 
Видим.   Явления Облачность Т
(°С)
Тd
(°С)
f(%) Тe
(°С)
Pmin
(гПа)
dP
(гПа)
Po
(мм)
O2
(г/м3)
Тmin Tmax R s Состояние
почвы
03 19.10.18 тихо ()   н/о    н/о 
+2 +0 87 +2  1018.5  0.4  715  286           
06 19.10.18 230 (ЮЗ) //  20000 м    9/9 300 м кучево-дожд. 
[Cb cap]
+2.4 -0.9 79 +2  1018  -0.3  714  285           
09 19.10.18 тихо ()   н/о    н/о 
+0.8 -1.2 86 +1  1018.5  0.1  714  287           
15 19.10.18 тихо ()   н/о    н/о 
-0.3 -2.1 88 -0  1019.1  -0.2  715  288           
18 19.10.18 230 (ЮЗ) //  20000 м    10/10 600 м кучево-дожд. 
[Cb cap]
-1 -3 86 -1  1019.5  0.2  715  289           
21 19.10.18 тихо ()   н/о    н/о 
-2 -2.8 94 -2  1019.3  -0.4  715  290           
00 20.10.18 000 (С) //  10 км  слаб. ливневой снег  10/10 200 м кучево-дожд. 
[Cb cap]
-1.3 -2.2 94 -1  1019.5  0.4  715  290  -2.8    0.4  <0.5  сухой снег
10-40% 
03 20.10.18 тихо ()   н/о    н/о 
+0.3 -1.4 88 1018.6  -0.5  714  288           
06 20.10.18 230 (ЮЗ) //  20000 м  {ливн. осадки}  9/9 600 м кучево-дожд. 
[Cb cap]
+1.7 -1.8 78 +2  1018.1  -0.1  714  286           
09 20.10.18 тихо ()   н/о    н/о 
-0.9 -1.9 93 -1  1020.1  1.3  715  289           
12 20.10.18 000 (С) //  10 км  слаб. ливневой снег  10/10 600 м кучево-дожд. 
[Cb cap]
-1.4 -2.2 94 -1  1021.2  0.9  716  290    +1.9  0.6     
15 20.10.18 тихо ()   н/о    н/о 
-2 -2.5 96 -2  1022.1  0.7  717  291           
18 20.10.18 000 (С) //  0500 м  туман{ливн. осадки}  ?/?  
-2.3 -2.8 96 -2  1023.1  0.8  717  292           
21 20.10.18 тихо ()   н/о    н/о 
-2.8 -3.4 96 -3  1023.8  0.6  718  292           
00 21.10.18 360 (С) //  20000 м  {ливн. осадки, туман}  10/10 200 м кучево-дожд. 
[Cb cap]
-2.7 -3.6 94 -3  1024.9  0.6  718  293  -2.9    0.3  <0.5  сухой снег
50-90% 
03 21.10.18 тихо ()   н/о    н/о 
-0.1 -2.7 83 -0  1023.5  -0.7  718  290           
06 21.10.18 тихо ()   20000 м    ясно 
+3 -2.5 67 +3  1021.5  -1.2  717  286           
09 21.10.18 тихо ()   н/о    н/о 
-1.1 -2.8 88 -1  1022.4  -1.2  717  290           
12 21.10.18 000 (С) //  20000 м    ясно 
-3.7 -4.3 96 -4  1023.6  0.5  717  293    +3.2       
15 21.10.18 тихо ()   н/о    н/о 
-4 -4.9 93 -4  1023.2  -0.4  717  294           
18 21.10.18 050 (СВ) //  20000 м    10/0 средняя 
[Ac und]
-4.4 -5.4 93 -4  1023  -0.3  717  294           
21 21.10.18 тихо ()   н/о    н/о 
-4.8 -5.9 92 -5  1022.2  -0.8  716  294           
00 22.10.18 090 (В) //  20000 м    6/0 верхняя 
[Ci fib]
-2.9 -5.2 84 -3  1021.4  -0.3  716  292  -5.6        замёрзшая 
03 22.10.18 тихо ()   н/о    н/о 
+3.8 -3.8 58 +4  1018.5  715  284           
06 22.10.18 090 (В) //  20000 м    10/0 верхняя 
[Cs]
+7 -3.7 46 +7  1016  -1.5  714  281           
Время (UTC), дата Ветер
(°,м/с) 
Видим.   Явления Облачность Т
(°С)
Тd
(°С)
f(%) Тe
(°С)
Pmin
(гПа)
dP
(гПа)
Po
(мм)
O2
(г/м3)
Тmin Tmax R s Состояние
почвы

Для получения пояснительной информации подведите курсор к названию столбца.

ПОГОДА в Экимчане - архив

Всё, что Вы хотите узнать о погоде в Экимчане - удобно и подробно!

Выберите нужную дату (начиная с 1 января 2015* года) и нажмите кнопку "Найти".
Будут отображены архивные сводки погоды по пункту Экимчан, начиная с указанной даты.


Отображать данные в формате CSV (для использования в таблицах Excel)


Внимание! Наш архив погоды предназначен исключительно для личного некоммерческого использования в познавательных целях. Если Вам необходимы официальные справки о состоянии погоды (для производственных, юридических, коммерческих и т.п. целей), обращайтесь в органы Росгидромета.

*Примечание: данная дата относится к архиву по метеостанциям СССР (Россия, СНГ, Балтия).
Архив по метеостанциям Зарубежной Европы и Азии (кроме Китая) хранится 10 дней, по другим регионам земного шара (Китай, Африка, Америка, Австралия, Океания) - 1 день.

Экимчан - район местоположения метеостанции


Название, широта, долгота, высота метеостанции:
Экимчан 53.1°ш. 133°д. 542 м над ур. моря [Российская Федерация]

Дополнительная информация

В oтличие oт бoльшинства пoгoдных сайтoв мы публикуем пoдрoбную метеoинфoрмацию в детальнoм прoфессиoнальнoм фoрмате.

Характеристики температуры и влажнoсти вoздуха измеряются на высoте 2 м в тени вдали oт зданий и деревьев.
Скoрoсть ветра измеряется на высoте 10 м (на урoвне рoста челoвека скoрoсть ветра ниже в 1.5-2 раза). Если метеoстанция нахoдится в гoрoде или в лесу, тo скoрoсть ветра занижена на 2-4 м/с пo сравнению с oткрытым местoм. Скoрoсть ветра над акватoриями крупных рек и oзёр, а также на вершинах хoлмoв на 2-5 м/с выше, чем в oбычных услoвиях.
Атмoсфернoе давление в разных тoчках местнoсти мoжет значительнo oтличаться oт давления на метеoстанции, в зависимoсти oт услoвий рельефа (при пoдъёме на 10 м давление пoнижается примернo на 1 мм рт.ст.).